Ballenas Island, British Columbia

5:23 PM PDT on July 27, 2017 (GMT -0700)
Ballenas Island

Weather History for CWGB - November, 2012

Change the Weather History Date:

Tuesday, November 27, 2012

  Actual Average Record
Temperature  
Mean Temperature 40 °F -  
Max Temperature 44 °F - - ()
Min Temperature 37 °F - - ()
Degree Days  
Heating Degree Days 24    
Moisture  
Dew Point 37 °F    
Average Humidity 84    
Maximum Humidity 92    
Minimum Humidity 66    
Precipitation  
Precipitation 0.00 in - - ()
Sea Level Pressure  
Sea Level Pressure 30.01 in    
Wind  
Wind Speed 6 mph ()    
Max Wind Speed 15 mph    
Max Gust Speed -    
T = Trace of Precipitation, MM = Missing Value Source: Averaged Metar Reports

Daily Weather History Graph

Daily Weather History Graph

Search for Another Location

Airport or City:

Trip Planner

Search our weather history database for the weather conditions in past years. The results will help you decide how hot, cold, wet, or windy it might be!

Date:

Astronomy

Nov. 27, 2012 Rise Set
Actual Time 7:46 AM PST 4:22 PM PST
Civil Twilight 7:09 AM PST 4:58 PM PST
Nautical Twilight 6:29 AM PST 5:38 PM PST
Astronomical Twilight 5:51 AM PST 6:17 PM PST
Moon 3:59 PM PST (11/27) 6:54 AM PST (11/27)
Length of Visible Light 9h 49m
Length of Day
8h 36m
Waxing Gibbous, 99% of the Moon is Illuminated
Nov 27
Waxing Gibbous
Nov 28
Full
Dec 6
Last Quarter
Dec 13
New
Dec 19
First Quarter

Hourly Weather History & Observations

Time (PST) Temp. Windchill Dew Point Humidity Pressure Visibility Wind Dir Wind Speed Gust Speed Precip Events Conditions
12:00 AM 37.9 °F 34.4 °F 35.2 °F 90% 30.08 in - SW 4.6 mph - N/A   Unknown
1:00 AM 37.9 °F 34.4 °F 35.4 °F 91% 30.07 in - SW 4.6 mph - N/A   Unknown
2:00 AM 37.9 °F 34.4 °F 35.1 °F 89% 30.07 in - SW 4.6 mph - N/A   Unknown
3:00 AM 38.7 °F 33.6 °F 35.8 °F 89% 30.07 in - SW 6.9 mph - N/A   Unknown
4:00 AM 39 °F - 36 °F 84% 30.06 in - SW 3.5 mph - -  
4:00 AM 38.8 °F 36.5 °F 35.8 °F 89% 30.06 in - SW 3.5 mph - N/A   Unknown
5:00 AM 38.5 °F - 36.1 °F 91% 30.06 in - SW 2.3 mph - N/A   Unknown
6:00 AM 38.5 °F - 36.1 °F 91% 30.05 in - SW 1.2 mph - N/A   Unknown
7:00 AM 38.8 °F - 36.7 °F 92% 30.05 in - Calm Calm - N/A   Unknown
8:00 AM 39.2 °F - 37.0 °F 92% 30.06 in - SSE 2.3 mph - N/A   Unknown
9:00 AM 39.7 °F - 37.4 °F 91% 30.07 in - SE 2.3 mph - N/A   Unknown
10:00 AM 41 °F - 39 °F 89% 30.06 in - East 11.5 mph - -  
10:00 AM 41.4 °F 34.7 °F 38.8 °F 91% 30.06 in - East 11.5 mph - N/A   Unknown
11:00 AM 41.9 °F 35.0 °F 38.1 °F 86% 30.05 in - ESE 12.7 mph - N/A   Unknown
12:00 PM 42.1 °F 34.9 °F 38.8 °F 88% 30.03 in - ESE 13.8 mph - N/A   Unknown
1:00 PM 43.2 °F 36.2 °F 38.1 °F 82% 30.01 in - ESE 13.8 mph - N/A   Unknown
2:00 PM 43.5 °F 37.5 °F 37.2 °F 78% 30.00 in - East 11.5 mph - N/A   Unknown
3:00 PM 44.4 °F 37.5 °F 36.0 °F 72% 29.98 in - ESE 15.0 mph - N/A   Unknown
4:00 PM 44 °F - 36 °F 66% 29.97 in - East 11.5 mph - -  
4:00 PM 43.7 °F 37.7 °F 36.5 °F 76% 29.97 in - East 11.5 mph - N/A   Unknown
5:00 PM 43.3 °F 37.7 °F 36.7 °F 77% 29.96 in - East 10.4 mph - N/A   Unknown
6:00 PM 43.5 °F 37.9 °F 37.0 °F 78% 29.95 in - East 10.4 mph - N/A   Unknown
7:00 PM 42.4 °F 38.8 °F 36.9 °F 81% 29.94 in - ESE 5.8 mph - N/A   Unknown
8:00 PM 43.0 °F 38.2 °F 37.2 °F 80% 29.93 in - ESE 8.1 mph - N/A   Unknown
9:00 PM 42.8 °F 38.0 °F 38.3 °F 84% 29.92 in - ESE 8.1 mph - N/A   Unknown
10:00 PM 43 °F - 38 °F 75% 29.92 in - ESE 6.9 mph - -  
10:00 PM 42.6 °F 38.4 °F 37.8 °F 83% 29.92 in - ESE 6.9 mph - N/A   Unknown
11:00 PM 41.5 °F - 37.8 °F 86% 29.92 in - SW 2.3 mph - N/A   Unknown